Location: Dompnac
(44.5644°N, 4.1026°E)
Time: 10:50:40
(UTC+00:00)

Okean-O - Pass Details

Date: 19 September 2020
Orbit: 638 x 641 km, 98.2° (Epoch: 29 October)

Event Time Altitude Azimuth Distance (km) Brightness Sun altitude
Rises 18:28:44 0° 178° (S) 2,932 5.9 -8.4°
Reaches altitude 10° 18:30:58 10° 183° (S) 2,027 5.1 -8.8°
Maximum altitude 18:35:17 52° 260° (W) 802 3.6 -9.5°
Drops below altitude 10° 18:39:38 10° 337° (NNW) 2,044 5.7 -10.3°
Sets 18:41:54 0° 342° (NNW) 2,958 6.5 -10.7°
